Location: Firdgum
(53.2488°N, 5.5615°E)
Time: 00:26:20
(UTC+00:00)

NOSS 2-1 (E) - Pass Details

Date: 08 December 2019
Orbit: 456 x 1748 km, 63.3° (Epoch: 19 January)

Event Time Altitude Azimuth Distance (km) Brightness Sun altitude
Exits shadow 04:55:09 51° 278° (W) 1,104 4.3 -23.0°
Maximum altitude 04:56:23 63° 228° (SW) 1,036 4.4 -22.8°
Drops below altitude 10° 05:03:35 10° 150° (SSE) 3,134 7.6 -21.8°
Sets 05:06:49 0° 148° (SSE) 4,307 8.5 -21.3°
